Location: Horowhenua
(40.7500°S, 175.3333°E)
Time: 12:13:09
(UTC+00:00)

Envisat - Pass Details

Date: 28 January 2023
Orbit: 763 x 765 km, 98.2° (Epoch: 29 March)

Event Time Altitude Azimuth Distance (km) Brightness Sun altitude
Exits shadow 14:54:05 - 37° (NE) 2,799 5.8 -22.4°
Reaches altitude 10° 14:55:23 10° 42° (NE) 2,307 5.4 -22.3°
Maximum altitude 15:00:07 40° 110° (ESE) 1,128 4.3 -21.7°
Drops below altitude 10° 15:04:54 10° 178° (S) 2,333 6.2 -21.2°
Sets 15:07:20 0° 185° (S) 3,267 6.9 -20.9°
